Regional Weather Roundup
Issued by NWS

Home | Current Version | Previous Version | Graphics & Text | Print | Product List | Glossary On
Versions: 1 2 3 4 5 6 7 8 9 10 11 12 13 14 15 16 17 18 19 20 21 22 23 24 25 26 27 28 29 30 31 32 33 34 35 36 37 38 39 40 41 42 43 44 45 46 47 48 49 50
000
ASUS43 KMKX 292200
RWRWI

WISCONSIN REGIONAL WEATHER ROUNDUP
NATIONAL WEATHER SERVICE MILWAUKEE/SULLIVAN WI
500 PM CDT SUN MAY 29 2016

NOTE: "FAIR" INDICATES FEW OR NO CLOUDS BELOW 12,000 FEET WITH NO
SIGNIFICANT WEATHER AND/OR OBSTRUCTIONS TO VISIBILITY.

WIZ001-002-006>008-014>016-023>028-292300-
NORTHWEST WISCONSIN

CITY           SKY/WX    TMP DP  RH WIND       PRES   REMARKS
SUPERIOR ARPT  PTSUNNY   71  55  56 W16G25    29.89S
ASHLAND        CLOUDY    68  56  65 W10G17    29.88R
HAYWARD        PTSUNNY   72  55  55 VRB7      29.91S
SIREN          MOSUNNY   74  54  49 W14G22    29.92S
CUMBERLAND     PTSUNNY   70  54  56 W10       29.94R
RICE LAKE      PTSUNNY   73  55  52 W15       29.95R
CHETEK         NOT AVBL
LADYSMITH      MOSUNNY   71  56  59 W16       29.93S
EAU CLAIRE     NOT AVBL
MENOMONIE      MOSUNNY   76  56  50 W13G18    29.94S
NEW RICHMOND   MOSUNNY   75  55  50 W12       29.94F
OSCEOLA        MOSUNNY   76  56  50 W13       29.96S
$$

WIZ003>005-009-010-017-018-292300-
NORTH CENTRAL WISCONSIN

CITY           SKY/WX    TMP DP  RH WIND       PRES   REMARKS
MANITOWISH WTR NOT AVBL
ARBOR VITAE    PTSUNNY   65  60  81 NW12      29.89R
WOODRUFF       PTSUNNY   65  60  81 NW12      29.89R
RHINELANDER    MOSUNNY   71  58  63 W17G23    29.88S
EAGLE RIVER      N/A     66  58  75 W15       29.87F
LAND O LAKES   LGT RAIN  63  60  89 W12G18    29.88R
PHILLIPS       CLOUDY    68  56  65 W10G17    29.90R
TOMAHAWK       PTSUNNY   69  57  65 W12G22    29.90S
MEDFORD        PTSUNNY   70  59  66 W10G22    29.91S
MERRILL        SUNNY     71  62  73 NW8       29.90F
$$

WIZ029-030-035-036-043>047-292300-
CENTRAL WISCONSIN

CITY           SKY/WX    TMP DP  RH WIND       PRES   REMARKS
WAUSAU         PTSUNNY   75  58  55 W20G31    29.89S
MOSINEE        PTSUNNY   72  61  68 W17G23    29.92S
MARSHFIELD     MOSUNNY   75  57  53 W16G26    29.91F
STEVENS POINT  PTSUNNY   72  57  59 W10G20    29.92F
WAUPACA        SUNNY     77  62  59 W10G16    29.91F
WAUTOMA        PTSUNNY  N/A N/A N/A W16G23      N/A
WISC RAPIDS    MOSUNNY   76  55  48 NW14G21   29.93S
CAMP DOUGLAS   NOT AVBL
$$

WIZ011>013-019>022-031-037>040-048>050-292300-
NORTHEAST WISCONSIN

CITY           SKY/WX    TMP DP  RH WIND       PRES   REMARKS
ANTIGO         PTSUNNY   68  61  80 W17G26    29.90S
SHAWANO        PTSUNNY   72  63  72 W12       29.89S
OCONTO         PTSUNNY   74  64  71 W18G24    29.86S
STURGEON BAY   NOT AVBL
GREEN BAY      PTSUNNY   74  61  63 W15G26    29.89S
MANITOWOC      NOT AVBL
APPLETON       MOSUNNY   73  57  56 W17G23    29.90S
CLINTONVILLE   MOSUNNY   73  57  56 W20       29.89S
OSHKOSH        MOSUNNY   75  57  53 W13G22    29.90F
$$

WIZ032>034-041-042-053>061-292300-
SOUTHWEST WISCONSIN

CITY           SKY/WX    TMP DP  RH WIND       PRES   REMARKS
LA CROSSE      PTSUNNY   76  59  55 NW13      29.93F
SPARTA         PTSUNNY   76  56  48 NW15G23   29.95S
VIROQUA        PTSUNNY   76  60  58 W16G22    29.98S
BOSCOBEL       MOSUNNY   79  58  48 W9G25     29.96F HX  80
PRAIRIE DU CHI CLOUDY    77  56  48 SW10      29.97F
PLATTEVILLE    MOSUNNY   78  59  51 W17G26    29.99F
$$

WIZ056-057-062-063-064-067-068-292300-
SOUTH CENTRAL WISCONSIN

CITY           SKY/WX    TMP DP  RH WIND       PRES   REMARKS
REEDSBURG      PTSUNNY   76  59  54 W16       29.94F
BARABOO/DELLS  CLOUDY    75  54  47 W13G20    29.95S
LONE ROCK      NOT AVBL
MINERAL POINT  PTSUNNY   79  55  44 W18G25    29.98S
MADISON        PTSUNNY   77  55  46 W10G18    29.95S
MIDDLETON      SUNNY     78  58  50 W13G18    29.97R
WATERTOWN      MOSUNNY   77  58  51 W13G21    29.94F
MONROE         MOSUNNY   79  54  41 W21       29.98F
JANESVILLE     PTSUNNY   79  55  44 W13G21    29.97S
$$

WIZ051-052-058>065-066-070>072-292300-
SOUTHEAST WISCONSIN

CITY           SKY/WX    TMP DP  RH WIND       PRES   REMARKS
MILWAUKEE      MOSUNNY   79  56  45 W14G23    29.94F HX  80
WAUKESHA       PTSUNNY   75  55  50 W12G23    29.96S
MILWAUKEE/TIMM MOSUNNY   79  54  41 MISG      29.95S
RACINE         PTSUNNY   80  56  43 W13G23    29.96F HX  80
BURLINGTON     MOSUNNY   77  53  43 W17       29.97S
KENOSHA        MOSUNNY   79  59  50 W13       29.96S HX  80
FOND DU LAC    MOSUNNY   77  59  53 W10G21    29.91F
SHEBOYGAN      MOSUNNY   74  62  66 NW8       29.91F
WEST BEND      MOSUNNY   77  55  47 W14G23    29.92F
JUNEAU         MOSUNNY   76  58  54 SW22G28   29.95F
$$

LSZ147-162-292300-
LAKE SUPERIOR

STATION/POSITION TIME  TEMP    WIND        PRES    WAVE
                       AIR SEA DIR/SP/G            HT/PER
                 (UTC) (F)     (DEG/KT/KT) (MB)    (FT/S)
W MID LAKE BUOY  2050   46 38  250/ 16/ 17 1008.7F   2/ 3
DEVILS ISLAND    2100   53     240/ 18/ 21 1010.4R
PORT WING        2100   60     260/ 14/ 21 1011.9R
SAXON HARBOR     2100   69     280/  9/ 14 1010.5R
$$

LMZ867-665-643>646-292300-
LAKE MICHIGAN

STATION/POSITION TIME  TEMP    WIND        PRES    WAVE
                       AIR SEA DIR/SP/G            HT/PER
                 (UTC) (F)     (DEG/KT/KT) (MB)    (FT/S)
CHAMBERS ISLAND  2100   69     190/  4/ 11 1010.5S
N MID LAKE BUOY  2050   51 48  190/ 16/ 17 1010.6F   3/ 5
NORTHPORT PIER   2100   70     240/  4/ 15 1010.5
KEWAUNEE LAKESHO 2100   71     270/ 15/ 20 1011.8R
SHEBOYGAN LAKESH 2100   74     250/ 10/ 12 1013.0F
PORT WASHINGTON  2100   80     260/ 11/ 19 1013.5F
S MID LAKE BUOY  2050   58 51  180/ 10/ 12 1014.6F   1
KENOSHA   LAKESH 2100   78     250/ 17/ 22 1014.2F
$$

TC  - TEMPERATURE IN CELSIUS
VSB - VISIBILITY IN STATUTE MILES
WCI - WIND CHILL INDEX
HX  - HEAT INDEX





USA.gov is the U.S. government's official web portal to all federal, state and local government web resources and services.